This demonstration page uses our WeatherBlox Daily Observations layout. Learn more.

Left ArrowRight Arrow

Hourly Observations for May 28, 2022

Temp ( °F °C ) Dew Point ( °F °C ) Humidity (%) Winds ( mph kmh ) Pressure ( in mb ) Visibility ( mi km ) Precip ( " mm )
12:53 am 00:53 Clear 67 19.4 57 13.9 71 71 Calm 29.75 1007 10 16 0.00 0.00
1:53 am 01:53 Clear 67 19.4 56 13.3 68 68 SSE 9 15 29.71 1006 10 16 0.00 0.00
2:53 am 02:53 Clear 65 18.3 56 13.3 73 73 S 13 20 29.67 1005 10 16 0.00 0.00
3:53 am 03:53 Clear 64 17.8 56 13.3 75 75 S 12 19 29.65 1004 10 16 0.00 0.00
4:53 am 04:53 Clear 64 17.8 55 12.8 73 73 S 9 15 29.65 1004 10 16 0.00 0.00
5:53 am 05:53 Mostly Clear 64 17.8 55 12.8 73 73 S 14 22 29.63 1003 10 16 0.00 0.00
6:53 am 06:53 Sunny 64 17.8 56 13.3 75 75 VRB 3 6 29.67 1005 10 16 0.00 0.00
7:53 am 07:53 Sunny 66 18.9 57 13.9 73 73 S 12 19 29.66 1005 10 16 0.00 0.00
8:53 am 08:53 Sunny 69 20.6 57 13.9 66 66 S 16 26 29.66 1004 10 16 0.00 0.00
9:53 am 09:53 Sunny 72 22.2 58 14.4 61 61 S 14 22 29.65 1004 10 16 0.00 0.00
10:53 am 10:53 Sunny 74 23.3 58 14.4 57 57 S 15 24 29.64 1004 10 16 0.00 0.00
11:53 am 11:53 Sunny 77 25 59 15 54 54 SSW 14 22 29.62 1003 10 16 0.00 0.00
12:53 pm 12:53 Sunny 80 26.7 60 15.6 51 51 S 16 26 29.59 1002 10 16 0.00 0.00
1:53 pm 13:53 Sunny with Light Rain 82 27.8 61 16.1 49 49 S 14 22 29.56 1001 10 16 0.00 0.00
2:53 pm 14:53 Sunny with Light Rain 82 27.8 60 15.6 47 47 S 13 20 29.54 1000 10 16 0.00 0.00
3:53 pm 15:53 Sunny with Light Rain 82 27.8 60 15.6 47 47 S 14 22 29.51 999 10 16 0.00 0.00
4:53 pm 16:53 Sunny with Light Rain 84 28.9 61 16.1 46 46 SSE 15 24 29.49 999 10 16 0.00 0.00
5:53 pm 17:53 Sunny with Light Rain 83 28.3 61 16.1 48 48 SSE 17 28 29.46 998 10 16 0.00 0.00
6:53 pm 18:53 Sunny with Light Rain 83 28.3 62 16.7 49 49 S 17 28 29.45 997 10 16 0.00 0.00
7:53 pm 19:53 Sunny 81 27.2 63 17.2 54 54 SSE 14 22 29.43 997 10 16 0.00 0.00
8:53 pm 20:53 Sunny 79 26.1 64 17.8 60 60 SSE 15 24 29.42 996 10 16 0.00 0.00
9:53 pm 21:53 Clear 77 25 65 18.3 66 66 SSE 15 24 29.41 996 10 16 0.00 0.00
11:53 pm 23:53 Clear 76 24.4 67 19.4 74 74 SSE 15 24 29.39 995 10 16 0.00 0.00

Powered by AerisWeather